Tracking 20242 objects as of 24-Jan-2020
HD Live streaming from Space Station
objects crossing your sky now

COSMOS 2251 DEB

Track COSMOS 2251 DEB now!
10-day predictions


NORAD ID: 34129
Int'l Code: 1993-036LA
Perigee: 690.5 km
Apogee: 760.7 km
Inclination: 74.0 °
Period: 99.2 minutes
Semi major axis: 7096 km
RCS: 0.0571 m2 (small)
Launch date: June 16, 1993
Source: Commonwealth of Independent States (former USSR) (CIS)
Launch site: PLESETSK MISSILE AND SPACE COMPLEX (PKMTR)

Note: This is SATELLITE DEBRIS
aabbcc
Your satellite tracking list
Your tracking list is empty




NASA's NSSDC Master Catalog

Two Line Element Set (TLE):
1 34129U 93036LA  20023.36988443  .00000330  00000-0  87091-4 0  9997
2 34129  74.0473 111.1321 0049421  21.0649 339.2532 14.52197516577768
Source of the keplerian elements: AFSPC